Weather History for Knoxville, TN

Change the Weather History Date:

Sunday, September 28, 2014

  Actual Average Record
Temperature  
Mean Temperature 70 °F 66 °F  
Max Temperature 80 °F 77 °F 93 °F (1939)
Min Temperature 60 °F 55 °F 37 °F (1985)
Degree Days  
Heating Degree Days 0 2  
Month to date heating degree days 1 17  
Since 1 July heating degree days 1 17  
Cooling Degree Days 5 3  
Month to date cooling degree days 237 199  
Year to date cooling degree days 1436 1480  
Growing Degree Days 20 (Base 50)    
Moisture  
Dew Point 61 °F    
Average Humidity 75    
Maximum Humidity 100    
Minimum Humidity 50    
Precipitation  
Precipitation 0.00 in 0.11 in 1.78 in (1872)
Month to date precipitation 0.18 3.02  
Year to date precipitation 29.44 36.62  
Snow  
Snow 0.00 in 0.00 in - ()
Month to date snowfall 0.0 0.0  
Since 1 July snowfall 0.0 0.0  
Since 1 September snowfall 0.0 0.0  
Snow Depth 0.00 in    
Sea Level Pressure  
Sea Level Pressure 30.11 in    
Wind  
Wind Speed 3 mph (NE)    
Max Wind Speed 8 mph    
Max Gust Speed 11 mph    
Visibility 10 miles    
Events      
T = Trace of Precipitation, MM = Missing Value Source: NWS Daily Summary

Daily Weather History Graph

Daily Weather History Graph

Search for Another Location

Airport:

Trip Planner

Search our weather history database for the weather conditions in past years. The results will help you decide how hot, cold, wet, or windy it might be!

Date:

Astronomy

Sep. 28, 2014 Rise Set
Actual Time 7:28 AM EDT 7:23 PM EDT
Civil Twilight 7:03 AM EDT 7:49 PM EDT
Nautical Twilight 6:33 AM EDT 8:19 PM EDT
Astronomical Twilight 6:03 AM EDT 8:48 PM EDT
Moon 11:33 AM EDT 10:15 PM EDT
Length of Visible Light 12h 46m
Length of Day
11h 55m
Waxing Crescent, 19% of the Moon is Illuminated
Sep 28
Waxing Crescent
Oct 1
First Quarter
Oct 8
Full
Oct 15
Last Quarter
Oct 23
New

Hourly Weather History & Observations

Time (EDT) Temp. Dew Point Humidity Pressure Visibility Wind Dir Wind Speed Gust Speed Precip Events Conditions
12:53 AM 68.0 °F 63.0 °F 84% 30.12 in 10.0 mi WSW 5.8 mph - N/A   Mostly Cloudy
1:53 AM 66.9 °F 62.1 °F 84% 30.12 in 10.0 mi West 4.6 mph - N/A   Overcast
2:53 AM 66.9 °F 62.1 °F 84% 30.12 in 10.0 mi West 4.6 mph - N/A   Overcast
3:53 AM 66.0 °F 62.1 °F 87% 30.12 in 10.0 mi Calm Calm - N/A   Overcast
4:53 AM 62.1 °F 61.0 °F 96% 30.13 in 10.0 mi NE 4.6 mph - N/A   Overcast
5:53 AM 63.0 °F 62.1 °F 97% 30.14 in 10.0 mi NNE 3.5 mph - N/A   Overcast
6:53 AM 61.0 °F 60.1 °F 97% 30.15 in 10.0 mi ENE 3.5 mph - N/A   Mostly Cloudy
7:53 AM 60.1 °F 60.1 °F 100% 30.16 in 7.0 mi Calm Calm - N/A   Mostly Cloudy
8:53 AM 63.0 °F 61.0 °F 93% 30.17 in 10.0 mi Calm Calm - N/A   Scattered Clouds
9:53 AM 70.0 °F 62.1 °F 76% 30.16 in 10.0 mi Calm Calm - N/A   Partly Cloudy
10:53 AM 73.0 °F 61.0 °F 66% 30.16 in 10.0 mi North 5.8 mph - N/A   Mostly Cloudy
11:53 AM 73.0 °F 61.0 °F 66% 30.14 in 10.0 mi Calm Calm - N/A   Mostly Cloudy
12:42 PM 77.0 °F 61.0 °F 58% 30.17 in 10.0 mi NNW 5.8 mph - N/A   Mostly Cloudy
12:53 PM 75.9 °F 61.0 °F 60% 30.14 in 10.0 mi Calm Calm - N/A   Mostly Cloudy
1:53 PM 77.0 °F 57.9 °F 52% 30.12 in 10.0 mi SSE 4.6 mph - N/A   Mostly Cloudy
2:53 PM 78.1 °F 59.0 °F 52% 30.09 in 10.0 mi SE 8.1 mph - N/A   Overcast
3:53 PM 77.0 °F 57.9 °F 52% 30.08 in 10.0 mi ENE 3.5 mph - N/A   Overcast
4:53 PM 77.0 °F 57.9 °F 52% 30.07 in 10.0 mi Variable 3.5 mph - N/A   Overcast
5:53 PM 77.0 °F 57.9 °F 52% 30.06 in 10.0 mi ENE 5.8 mph - N/A   Overcast
7:53 PM 73.9 °F 62.1 °F 66% 30.06 in 10.0 mi SE 3.5 mph - N/A   Overcast
8:53 PM 72.0 °F 62.1 °F 71% 30.06 in 10.0 mi Calm Calm - N/A   Overcast
9:53 PM 71.1 °F 63.0 °F 75% 30.06 in 10.0 mi Calm Calm - N/A   Overcast
10:53 PM 70.0 °F 63.0 °F 78% 30.05 in 10.0 mi Calm Calm - N/A   Overcast
11:53 PM 68.0 °F 64.0 °F 87% 30.05 in 10.0 mi Calm Calm - N/A   Overcast